This is the latest recevied weather packets stored in our database for station/object WX6HNX-6. If no packets are shown the sender has not sent any weather packets the latest 10 day(s).
| Time | Temp. | Humidity | Pressure | Rain* | Wind** | Luminosity | Snow |
|---|---|---|---|---|---|---|---|
| 1777723328 | 14.44° C | 66% | 1010.9 hPa | 0 mm | - | - | - |
| 1777723028 | 14.44° C | 65% | 1011 hPa | 0 mm | - | - | - |
| 1777722728 | 14.44° C | 64% | 1011 hPa | 0 mm | - | - | - |
| 1777722428 | 14.44° C | 63% | 1011 hPa | 0 mm | - | - | - |
| 1777722140 | 14.44° C | 61% | 1011.1 hPa | 0 mm | - | - | - |
| 1777721830 | 14.44° C | 61% | 1011.1 hPa | 0 mm | - | - | - |
| 1777721409 | 15° C | 61% | 1011.2 hPa | 0 mm | - | - | - |
| 1777721107 | 15° C | 60% | 1011.1 hPa | 0 mm | - | - | - |
| 1777720706 | 15.56° C | 58% | 1011.1 hPa | 0 mm | - | - | - |
| 1777720408 | 16.11° C | 57% | 1011.1 hPa | 0 mm | - | - | - |
| 1777720108 | 16.11° C | 58% | 1011 hPa | 0 mm | - | - | - |
| 1777719806 | 16.67° C | 59% | 1011.1 hPa | 0 mm | - | - | - |
| 1777719506 | 16.67° C | 63% | 1011.1 hPa | 0 mm | - | - | - |
| 1777719206 | 16.67° C | 63% | 1011 hPa | 0 mm | - | - | - |
| 1777718906 | 16.11° C | 64% | 1011 hPa | 0 mm | - | - | - |
| 1777718606 | 15.56° C | 64% | 1010.9 hPa | 0 mm | - | - | - |
| 1777718306 | 15.56° C | 64% | 1010.9 hPa | 0 mm | - | - | - |
| 1777717714 | 15.56° C | 61% | 1010.9 hPa | 0 mm | - | - | - |
| 1777717414 | 15.56° C | 61% | 1010.9 hPa | 0 mm | - | - | - |
| 1777717114 | 15.56° C | 60% | 1010.9 hPa | 0 mm | - | - | - |
| 1777716514 | 16.11° C | 57% | 1010.9 hPa | 0 mm | - | - | - |
| 1777716214 | 16.67° C | 54% | 1010.8 hPa | 0 mm | - | - | - |
| 1777715914 | 17.22° C | 53% | 1010.7 hPa | 0 mm | - | - | - |
| 1777715615 | 17.22° C | 58% | 1010.7 hPa | 0 mm | - | - | - |
| 1777715315 | 17.22° C | 58% | 1010.7 hPa | 0 mm | - | - | - |
* Rain latest hour (hover to see other rain measurements)
** Current wind speed in m/s (hover to see current wind gust speed)